EW7526 Weather Reports


Display with metric or nautical units.
time (UTC)temp
F
wind
direction
speed
MPH
gust
MPH
rain 1hr
in
rain 24hr
in
rain mn
in
humidity
%
barometer
mb
20170821005104 96 206 5.0 6.0 0.00 0.00 0.00 20 1010.1
20170821004604 96 226 5.0 6.0 0.00 0.00 0.00 20 1010.1
20170821004104 96 201 2.0 6.0 0.00 0.00 0.00 20 1010.2
20170821003604 96 161 0.0 2.0 0.00 0.00 0.00 20 1010.2
20170821003104 96 230 3.0 3.0 0.00 0.00 0.00 20 1010.2
20170821002604 96 226 2.0 6.0 0.00 0.00 0.00 20 1010.2
20170821002105 96 181 5.0 6.0 0.00 0.00 0.00 20 1010.2
20170821001604 96 226 5.0 7.0 0.00 0.00 0.00 20 1010.4
20170821001104 96 224 5.0 7.0 0.00 0.00 0.00 21 1010.4
20170821000605 96 189 5.0 9.0 0.00 0.00 0.00 21 1010.3
20170821000104 96 180 6.0 9.0 0.00 0.00 0.00 21 1010.3
20170820235603 96 215 5.0 7.0 0.00 0.00 0.00 21 1010.4
20170820235104 97 211 3.0 6.0 0.00 0.00 0.00 21 1010.5
20170820234605 97 187 5.0 6.0 0.00 0.00 0.00 20 1010.5
20170820234104 98 192 5.0 6.0 0.00 0.00 0.00 20 1010.7
20170820233604 98 183 2.0 5.0 0.00 0.00 0.00 20 1010.7
20170820233104 97 201 3.0 7.0 0.00 0.00 0.00 20 1010.7
20170820232604 97 246 4.0 8.0 0.00 0.00 0.00 20 1010.7
20170820232104 98 216 5.0 8.0 0.00 0.00 0.00 20 1010.7
20170820231604 98 202 3.0 7.0 0.00 0.00 0.00 20 1010.7
20170820231104 97 292 2.0 10.0 0.00 0.00 0.00 20 1010.7
20170820230604 99 238 3.0 5.0 0.00 0.00 0.00 20 1010.9
20170820230106 98 275 3.0 5.0 0.00 0.00 0.00 21 1010.9
20170820225604 97 197 3.0 8.0 0.00 0.00 0.00 22 1010.9
20170820225103 98 220 2.0 3.0 0.00 0.00 0.00 22 1010.8
20170820224604 98 179 0.0 3.0 0.00 0.00 0.00 23 1010.8
20170820224104 99 201 1.0 3.0 0.00 0.00 0.00 23 1011.1
20170820223604 98 49 2.0 6.0 0.00 0.00 0.00 23 1011.1
20170820223104 99 187 2.0 5.0 0.00 0.00 0.00 23 1011.2
20170820222604 98 165 5.0 6.0 0.00 0.00 0.00 23 1011.2
20170820222104 97 261 2.0 6.0 0.00 0.00 0.00 22 1011.2
20170820221604 97 156 3.0 6.0 0.00 0.00 0.00 23 1011.2
20170820221104 98 186 4.0 6.0 0.00 0.00 0.00 24 1011.2
20170820220604 96 190 3.0 7.0 0.00 0.00 0.00 24 1011.4
20170820220105 95 216 1.0 3.0 0.00 0.00 0.00 25 1011.4
20170820215604 95 320 1.0 3.0 0.00 0.00 0.00 26 1011.4
20170820215104 95 74 0.0 2.0 0.00 0.00 0.00 26 1011.5
20170820214604 96 215 0.0 0.0 0.00 0.00 0.00 25 1011.5
20170820214105 95 185 2.0 3.0 0.00 0.00 0.00 26 1011.8
20170820213604 95 191 2.0 5.0 0.00 0.00 0.00 26 1011.8
20170820213104 95 243 3.0 5.0 0.00 0.00 0.00 26 1012.0
20170820212604 94 135 2.0 5.0 0.00 0.00 0.00 26 1012.1
20170820212104 94 329 2.0 3.0 0.00 0.00 0.00 27 1012.1
20170820211605 94 58 1.0 3.0 0.00 0.00 0.00 27 1012.3
20170820211104 95 104 3.0 5.0 0.00 0.00 0.00 26 1012.3
20170820210605 97 195 4.0 6.0 0.00 0.00 0.00 25 1012.5
20170820210105 97 195 3.0 6.0 0.00 0.00 0.00 26 1012.5
20170820205604 96 187 1.0 3.0 0.00 0.00 0.00 27 1012.6
20170820205104 95 87 1.0 2.0 0.00 0.00 0.00 27 1012.7
20170820204604 93 88 1.0 5.0 0.00 0.00 0.00 28 1012.7
20170820204104 93 0 1.0 5.0 0.00 0.00 0.00 28 1013.0
20170820203604 93 175 2.0 5.0 0.00 0.00 0.00 29 1013.0
20170820203103 93 191 1.0 3.0 0.00 0.00 0.00 29 1013.1
20170820202604 92 73 0.0 2.0 0.00 0.00 0.00 30 1013.1
20170820202104 92 158 2.0 3.0 0.00 0.00 0.00 29 1013.1
20170820201604 92 28 1.0 3.0 0.00 0.00 0.00 30 1013.2
20170820201104 91 177 0.0 1.0 0.00 0.00 0.00 31 1013.2
20170820200604 91 270 0.0 1.0 0.00 0.00 0.00 32 1013.3
20170820200105 92 261 0.0 2.0 0.00 0.00 0.00 32 1013.3
20170820195604 91 192 2.0 3.0 0.00 0.00 0.00 31 1013.4
20170820195104 90 265 0.0 2.0 0.00 0.00 0.00 33 1013.5
20170820194604 91 236 0.0 3.0 0.00 0.00 0.00 33 1013.5
20170820194104 90 268 0.0 1.0 0.00 0.00 0.00 34 1013.5
20170820193605 91 345 0.0 0.0 0.00 0.00 0.00 33 1013.5
20170820193104 91 148 1.0 3.0 0.00 0.00 0.00 32 1013.6
20170820192604 91 158 2.0 3.0 0.00 0.00 0.00 31 1013.7
20170820192105 89 202 0.0 2.0 0.00 0.00 0.00 33 1013.7
20170820191604 89 157 2.0 3.0 0.00 0.00 0.00 32 1013.6
20170820191105 89 183 0.0 1.0 0.00 0.00 0.00 34 1013.6
20170820190604 89 187 1.0 1.0 0.00 0.00 0.00 34 1013.8
20170820190104 88 59 0.0 1.0 0.00 0.00 0.00 35 1013.8
20170820185604 88 179 1.0 2.0 0.00 0.00 0.00 36 1013.9
20170820185104 88 180 2.0 5.0 0.00 0.00 0.00 37 1013.9
20170820184604 88 143 3.0 5.0 0.00 0.00 0.00 38 1013.9
20170820184104 88 162 3.0 6.0 0.00 0.00 0.00 37 1014.1
20170820183604 88 160 4.0 7.0 0.00 0.00 0.00 37 1014.1
20170820183104 89 194 3.0 6.0 0.00 0.00 0.00 37 1014.1
20170820182604 89 145 2.0 2.0 0.00 0.00 0.00 36 1014.1
20170820182104 88 175 0.0 2.0 0.00 0.00 0.00 38 1014.1
20170820181604 88 193 1.0 2.0 0.00 0.00 0.00 38 1014.2
20170820181104 88 184 0.0 2.0 0.00 0.00 0.00 38 1014.2
20170820180604 87 182 0.0 2.0 0.00 0.00 0.00 38 1014.2
20170820180105 87 163 2.0 3.0 0.00 0.00 0.00 41 1014.2
20170820175604 87 178 2.0 5.0 0.00 0.00 0.00 40 1014.2
20170820175104 86 210 0.0 2.0 0.00 0.00 0.00 39 1014.3
20170820174604 86 145 0.0 2.0 0.00 0.00 0.00 41 1014.3
20170820174104 86 30 0.0 2.0 0.00 0.00 0.00 39 1014.4
20170820173604 86 47 0.0 0.0 0.00 0.00 0.00 38 1014.4
20170820173104 86 216 1.0 2.0 0.00 0.00 0.00 40 1014.4
20170820172605 86 168 2.0 2.0 0.00 0.00 0.00 39 1014.4
20170820172104 86 161 2.0 3.0 0.00 0.00 0.00 39 1014.4
20170820171604 86 182 1.0 2.0 0.00 0.00 0.00 37 1014.4
20170820171104 86 191 2.0 2.0 0.00 0.00 0.00 37 1014.4
20170820170604 87 163 2.0 5.0 0.00 0.00 0.00 38 1014.4
20170820170105 87 203 2.0 3.0 0.00 0.00 0.00 35 1014.4
20170820165604 87 209 3.0 5.0 0.00 0.00 0.00 35 1014.4
20170820165104 87 192 3.0 5.0 0.00 0.00 0.00 35 1014.4
20170820164604 88 179 2.0 3.0 0.00 0.00 0.00 35 1014.4
20170820164104 88 200 0.0 3.0 0.00 0.00 0.00 35 1014.2
20170820163604 87 188 2.0 3.0 0.00 0.00 0.00 35 1014.2
20170820163104 88 249 0.0 3.0 0.00 0.00 0.00 35 1014.2
20170820162604 88 185 2.0 3.0 0.00 0.00 0.00 35 1014.2
20170820162105 88 247 1.0 3.0 0.00 0.00 0.00 35 1014.2
20170820161605 88 213 2.0 5.0 0.00 0.00 0.00 35 1014.1
20170820161104 88 200 3.0 5.0 0.00 0.00 0.00 34 1014.1
20170820160605 88 207 2.0 5.0 0.00 0.00 0.00 33 1014.0
20170820160105 89 220 0.0 3.0 0.00 0.00 0.00 32 1014.0
20170820155604 90 202 0.0 0.0 0.00 0.00 0.00 30 1014.0
20170820155104 88 206 0.0 0.0 0.00 0.00 0.00 32 1013.8
20170820154604 88 120 0.0 0.0 0.00 0.00 0.00 32 1013.8
20170820154104 87 19 0.0 0.0 0.00 0.00 0.00 32 1013.8
20170820153604 87 2 0.0 0.0 0.00 0.00 0.00 32 1013.8
20170820153104 87 233 0.0 0.0 0.00 0.00 0.00 33 1013.8
20170820152604 87 337 0.0 0.0 0.00 0.00 0.00 34 1013.8
20170820152104 87 290 0.0 0.0 0.00 0.00 0.00 35 1013.8
20170820151605 87 265 0.0 0.0 0.00 0.00 0.00 35 1013.6
20170820151104 87 186 0.0 0.0 0.00 0.00 0.00 35 1013.6
20170820150604 88 197 0.0 0.0 0.00 0.00 0.00 34 1013.7
20170820150105 88 178 0.0 0.0 0.00 0.00 0.00 35 1013.7
20170820145604 87 171 0.0 0.0 0.00 0.00 0.00 35 1013.7
20170820145104 86 160 0.0 0.0 0.00 0.00 0.00 35 1013.7
20170820144605 85 159 0.0 0.0 0.00 0.00 0.00 36 1013.7
20170820144104 84 179 0.0 0.0 0.00 0.00 0.00 37 1013.6
20170820143604 83 182 0.0 0.0 0.00 0.00 0.00 39 1013.6
20170820143104 82 117 0.0 0.0 0.00 0.00 0.00 39 1013.7
20170820142605 82 105 0.0 0.0 0.00 0.00 0.00 38 1013.7
20170820142104 82 202 0.0 0.0 0.00 0.00 0.00 38 1013.7
20170820141605 81 167 0.0 0.0 0.00 0.00 0.00 38 1013.7
20170820141104 81 161 0.0 0.0 0.00 0.00 0.00 38 1013.7
20170820140604 81 148 0.0 0.0 0.00 0.00 0.00 38 1013.6
20170820140105 80 211 0.0 0.0 0.00 0.00 0.00 38 1013.6
20170820135604 80 136 0.0 0.0 0.00 0.00 0.00 38 1013.6
20170820135105 80 177 0.0 0.0 0.00 0.00 0.00 38 1013.3
20170820134604 79 173 0.0 0.0 0.00 0.00 0.00 38 1013.3
20170820134104 78 166 0.0 0.0 0.00 0.00 0.00 38 1013.2
20170820133604 78 173 0.0 0.0 0.00 0.00 0.00 38 1013.2
20170820133104 78 212 0.0 0.0 0.00 0.00 0.00 38 1013.2
20170820132604 78 116 0.0 0.0 0.00 0.00 0.00 38 1013.1
20170820132104 79 249 0.0 0.0 0.00 0.00 0.00 37 1013.1
20170820131605 79 173 0.0 0.0 0.00 0.00 0.00 37 1013.0
20170820131104 79 127 0.0 0.0 0.00 0.00 0.00 37 1013.0
20170820130604 79 147 0.0 0.0 0.00 0.00 0.00 37 1013.0
20170820130104 79 202 0.0 0.0 0.00 0.00 0.00 37 1013.0
20170820125604 79 110 0.0 0.0 0.00 0.00 0.00 37 1013.0
20170820125104 79 138 0.0 0.0 0.00 0.00 0.00 37 1012.8
20170820124604 80 176 0.0 0.0 0.00 0.00 0.00 37 1012.8
20170820124104 80 158 0.0 0.0 0.00 0.00 0.00 36 1012.7
20170820123604 80 168 0.0 0.0 0.00 0.00 0.00 36 1012.7
20170820123104 80 162 0.0 0.0 0.00 0.00 0.00 36 1012.5
20170820122604 80 158 0.0 0.0 0.00 0.00 0.00 36 1012.4
20170820122104 80 126 0.0 0.0 0.00 0.00 0.00 36 1012.4
20170820121605 81 193 0.0 0.0 0.00 0.00 0.00 36 1012.4
20170820121105 80 150 0.0 0.0 0.00 0.00 0.00 36 1012.4
20170820120604 80 155 0.0 0.0 0.00 0.00 0.00 36 1012.3
20170820120105 80 151 0.0 0.0 0.00 0.00 0.00 36 1012.3
20170820115604 80 139 0.0 0.0 0.00 0.00 0.00 36 1012.3
20170820115104 81 158 0.0 0.0 0.00 0.00 0.00 36 1012.3
20170820114604 80 150 0.0 0.0 0.00 0.00 0.00 37 1012.3
20170820114105 80 146 0.0 0.0 0.00 0.00 0.00 37 1012.1
20170820113605 80 158 0.0 0.0 0.00 0.00 0.00 37 1012.1
20170820113104 80 156 0.0 0.0 0.00 0.00 0.00 37 1012.2
20170820112604 80 140 0.0 0.0 0.00 0.00 0.00 37 1012.2
20170820112105 80 180 0.0 0.0 0.00 0.00 0.00 37 1012.2
20170820111604 80 168 0.0 0.0 0.00 0.00 0.00 37 1012.1
20170820111104 80 151 0.0 0.0 0.00 0.00 0.00 37 1012.1
20170820110604 80 144 0.0 0.0 0.00 0.00 0.00 37 1011.9
20170820110105 80 117 0.0 0.0 0.00 0.00 0.00 37 1011.9
20170820105604 81 169 0.0 0.0 0.00 0.00 0.00 37 1011.9
20170820105104 81 151 0.0 0.0 0.00 0.00 0.00 37 1012.0
20170820104604 81 168 0.0 0.0 0.00 0.00 0.00 37 1012.0
20170820104104 81 191 0.0 0.0 0.00 0.00 0.00 37 1011.9
20170820103604 81 184 0.0 0.0 0.00 0.00 0.00 37 1011.9
20170820103104 81 177 0.0 0.0 0.00 0.00 0.00 37 1011.9
20170820102604 81 6 0.0 0.0 0.00 0.00 0.00 37 1011.9
20170820102104 81 255 0.0 0.0 0.00 0.00 0.00 37 1011.9
20170820101604 82 94 0.0 0.0 0.00 0.00 0.00 37 1012.0
20170820101105 82 118 0.0 0.0 0.00 0.00 0.00 36 1012.0
20170820100604 82 184 0.0 0.0 0.00 0.00 0.00 36 1011.9
20170820100105 82 19 0.0 0.0 0.00 0.00 0.00 36 1011.9
20170820095605 82 174 0.0 0.0 0.00 0.00 0.00 36 1011.9
20170820095104 83 131 0.0 0.0 0.00 0.00 0.00 36 1011.8
20170820094604 83 150 0.0 2.0 0.00 0.00 0.00 36 1011.8
20170820094104 83 165 1.0 2.0 0.00 0.00 0.00 35 1011.9
20170820093604 83 140 0.0 2.0 0.00 0.00 0.00 35 1011.9
20170820093104 83 155 0.0 0.0 0.00 0.00 0.00 35 1011.8
20170820092604 84 159 0.0 1.0 0.00 0.00 0.00 35 1011.8
20170820092104 84 137 0.0 1.0 0.00 0.00 0.00 35 1011.8
20170820091604 84 184 2.0 2.0 0.00 0.00 0.00 35 1011.8
20170820091104 84 195 0.0 3.0 0.00 0.00 0.00 35 1011.8
20170820090604 84 180 1.0 3.0 0.00 0.00 0.00 35 1012.0
20170820090105 83 210 0.0 1.0 0.00 0.00 0.00 35 1012.0
20170820085605 83 148 0.0 0.0 0.00 0.00 0.00 35 1011.9
20170820085105 83 197 0.0 1.0 0.00 0.00 0.00 35 1011.7
20170820084604 83 117 1.0 1.0 0.00 0.00 0.00 35 1011.7
20170820084104 83 68 0.0 2.0 0.00 0.00 0.00 35 1011.8
20170820083604 83 45 0.0 1.0 0.00 0.00 0.00 35 1011.8
20170820083104 83 45 0.0 1.0 0.00 0.00 0.00 35 1012.0
20170820082604 84 93 1.0 2.0 0.00 0.00 0.00 35 1012.0
20170820082106 84 28 0.0 0.0 0.00 0.00 0.00 35 1012.0
20170820081606 84 43 0.0 0.0 0.00 0.00 0.00 35 1012.0
20170820081105 84 154 0.0 0.0 0.00 0.00 0.00 34 1012.0
20170820080606 84 118 0.0 0.0 0.00 0.00 0.00 35 1012.0
20170820080106 85 112 0.0 0.0 0.00 0.00 0.00 34 1012.0
20170820075604 85 241 0.0 0.0 0.00 0.00 0.00 34 1011.9
20170820075105 85 159 0.0 0.0 0.00 0.00 0.00 34 1011.9
20170820074604 85 166 0.0 0.0 0.00 0.00 0.00 34 1011.9
20170820074105 86 170 0.0 2.0 0.00 0.00 0.00 34 1011.9
20170820073604 86 175 2.0 3.0 0.00 0.00 0.00 34 1011.9
20170820073104 85 160 2.0 3.0 0.00 0.00 0.00 35 1012.0
20170820072604 85 174 1.0 2.0 0.00 0.00 0.00 36 1012.0
20170820072104 85 143 0.0 3.0 0.00 0.00 0.00 36 1012.0
20170820071604 85 114 0.0 0.0 0.00 0.00 0.00 36 1011.9
20170820071105 85 151 1.0 1.0 0.00 0.00 0.00 36 1011.9
20170820070604 85 149 2.0 3.0 0.00 0.00 0.00 36 1011.7
20170820070104 85 158 0.0 0.0 0.00 0.00 0.00 36 1011.7
20170820065604 85 175 0.0 0.0 0.00 0.00 0.00 35 1011.7
20170820065104 85 172 0.0 0.0 0.00 0.00 0.00 34 1011.6
20170820064604 86 200 0.0 0.0 0.00 0.00 0.00 34 1011.6
20170820064104 86 190 0.0 0.0 0.00 0.00 0.00 34 1011.5
20170820063604 86 179 0.0 0.0 0.00 0.00 0.00 34 1011.5
20170820063104 86 105 0.0 0.0 0.00 0.00 0.00 34 1011.4
20170820062604 87 179 0.0 0.0 0.00 0.00 0.00 33 1011.4
20170820062104 87 160 0.0 0.0 0.00 0.00 0.00 33 1011.4
20170820061604 87 159 0.0 0.0 0.00 0.00 0.00 33 1011.5
20170820061105 87 146 0.0 0.0 0.00 0.00 0.00 33 1011.5
20170820060604 87 156 0.0 0.0 0.00 0.00 0.00 33 1011.4
20170820060105 87 158 0.0 0.0 0.00 0.00 0.00 33 1011.4
20170820055604 87 178 0.0 0.0 0.00 0.00 0.00 33 1011.4
20170820055104 87 146 0.0 0.0 0.00 0.00 0.00 33 1011.4
20170820054604 87 136 0.0 1.0 0.00 0.00 0.00 33 1011.4
20170820054104 87 168 0.0 0.0 0.00 0.00 0.00 33 1011.4
20170820053604 87 117 0.0 0.0 0.00 0.00 0.00 33 1011.4
20170820053105 87 156 0.0 0.0 0.00 0.00 0.00 32 1011.3
20170820052604 88 149 0.0 0.0 0.00 0.00 0.00 32 1011.3
20170820052105 88 175 0.0 0.0 0.00 0.00 0.00 32 1011.3
20170820051604 88 91 0.0 0.0 0.00 0.00 0.00 32 1011.2
20170820051105 88 129 0.0 0.0 0.00 0.00 0.00 32 1011.2
20170820050604 88 189 0.0 0.0 0.00 0.00 0.00 32 1011.1
20170820050105 88 143 0.0 0.0 0.00 0.00 0.00 32 1011.1
20170820045604 88 143 0.0 0.0 0.00 0.00 0.00 32 1011.1
20170820045105 89 153 0.0 0.0 0.00 0.00 0.00 31 1011.1
20170820044605 89 146 0.0 0.0 0.00 0.00 0.00 31 1011.1
20170820044105 89 112 0.0 0.0 0.00 0.00 0.00 31 1011.0
20170820043605 89 135 0.0 0.0 0.00 0.00 0.00 31 1011.0
20170820043104 89 121 0.0 0.0 0.00 0.00 0.00 30 1011.0
20170820042604 89 158 0.0 0.0 0.00 0.00 0.00 30 1011.0
20170820042105 90 145 0.0 0.0 0.00 0.00 0.00 30 1011.0
20170820041604 90 159 0.0 0.0 0.00 0.00 0.00 30 1010.8
20170820041104 91 114 0.0 0.0 0.00 0.00 0.00 29 1010.8
20170820040605 91 152 0.0 0.0 0.00 0.00 0.00 29 1010.8
20170820040105 91 180 0.0 0.0 0.00 0.00 0.00 29 1010.8
20170820035605 92 159 0.0 0.0 0.00 0.00 0.00 28 1010.8
20170820035104 92 185 0.0 1.0 0.00 0.00 0.00 28 1010.7
20170820034604 93 184 2.0 2.0 0.00 0.00 0.00 28 1010.7
20170820034104 93 200 1.0 2.0 0.00 0.00 0.00 28 1010.5
20170820033604 93 185 1.0 3.0 0.00 0.00 0.00 28 1010.5
20170820033104 93 175 2.0 3.0 0.00 0.00 0.00 28 1010.5
20170820032605 93 204 2.0 3.0 0.00 0.00 0.00 28 1010.5
20170820032104 94 204 2.0 2.0 0.00 0.00 0.00 28 1010.5
20170820031604 94 197 2.0 3.0 0.00 0.00 0.00 27 1010.4
20170820031104 94 190 0.0 2.0 0.00 0.00 0.00 27 1010.4
20170820030604 94 240 2.0 5.0 0.00 0.00 0.00 27 1010.3
20170820030105 94 193 1.0 3.0 0.00 0.00 0.00 26 1010.3
20170820025605 95 196 1.0 3.0 0.00 0.00 0.00 26 1010.2
20170820025104 95 212 1.0 6.0 0.00 0.00 0.00 26 1010.2
20170820024604 95 166 2.0 6.0 0.00 0.00 0.00 25 1010.2
20170820024104 96 204 3.0 5.0 0.00 0.00 0.00 24 1010.1
20170820023604 96 186 5.0 5.0 0.00 0.00 0.00 24 1010.1
20170820023105 96 171 3.0 6.0 0.00 0.00 0.00 24 1010.1
20170820022604 96 221 1.0 7.0 0.00 0.00 0.00 24 1010.0
20170820022104 96 210 5.0 7.0 0.00 0.00 0.00 24 1010.0
20170820021604 97 311 2.0 6.0 0.00 0.00 0.00 23 1010.0
20170820021105 97 179 5.0 6.0 0.00 0.00 0.00 23 1010.0
20170820020604 97 215 2.0 7.0 0.00 0.00 0.00 23 1009.8
20170820020105 97 227 1.0 3.0 0.00 0.00 0.00 23 1009.8
20170820015604 98 270 2.0 3.0 0.00 0.00 0.00 23 1009.8
20170820015104 98 198 3.0 5.0 0.00 0.00 0.00 23 1009.8
20170820014604 98 182 2.0 3.0 0.00 0.00 0.00 22 1009.8
20170820014104 98 236 3.0 5.0 0.00 0.00 0.00 22 1009.7
20170820013604 98 186 2.0 5.0 0.00 0.00 0.00 22 1009.7
20170820013104 98 190 3.0 7.0 0.00 0.00 0.00 22 1009.7
20170820012604 99 231 5.0 6.0 0.00 0.00 0.00 22 1009.7
20170820012104 99 250 1.0 3.0 0.00 0.00 0.00 22 1009.7
20170820011604 99 226 1.0 2.0 0.00 0.00 0.00 21 1009.5
20170820011105 99 102 2.0 3.0 0.00 0.00 0.00 21 1009.5
20170820010604 99 285 2.0 6.0 0.00 0.00 0.00 21 1009.4
20170820010104 100 135 3.0 6.0 0.00 0.00 0.00 21 1009.4
20170820005606 100 212 2.0 6.0 0.00 0.00 0.00 21 1009.5